Weather History for Stanley, ND

Change the Weather History Date:

Thursday, January 16, 2014

  Actual Average (KMOT) Record (KMOT)
Temperature  
Mean Temperature 21 °F 12 °F  
Max Temperature 32 °F 21 °F 50 °F (1942)
Min Temperature 10 °F 3 °F -33 °F (1954)
Degree Days  
Heating Degree Days 44 53  
Month to date heating degree days 848  
Since 1 July heating degree days 4443  
Moisture  
Dew Point 13 °F    
Average Humidity 80    
Maximum Humidity 100    
Minimum Humidity 67    
Precipitation  
Precipitation 0.07 in 0.01 in 0.34 in (1967)
Month to date precipitation 0.28  
Year to date precipitation 0.28  
Sea Level Pressure  
Sea Level Pressure 29.99 in    
Wind  
Wind Speed 26 mph (NW)    
Max Wind Speed 41 mph    
Max Gust Speed 60 mph    
Visibility 10 miles    
Events Rain , Snow    
T = Trace of Precipitation, MM = Missing Value Source: NWS Daily Summary

Daily Weather History Graph

Daily Weather History Graph

Search for Another Location

Airport:

Trip Planner

Search our weather history database for the weather conditions in past years. The results will help you decide how hot, cold, wet, or windy it might be!

Date:

Astronomy

Jan. 16, 2014 Rise Set
Actual Time 8:34 AM CST 5:24 PM CST
Civil Twilight 7:59 AM CST 5:59 PM CST
Nautical Twilight 7:20 AM CST 6:38 PM CST
Astronomical Twilight 6:43 AM CST 7:15 PM CST
Moon 6:26 PM CST (1/16) 8:22 AM CST (1/16)
Length of Visible Light 10h 00m
Length of Day
8h 49m
Full, 100% of the Moon is Illuminated
Jan 16
Full
Jan 23
Last Quarter
Jan 30
New
Feb 6
First Quarter
Feb 14
Full

Hourly Weather History & Observations

Time (CST) Temp. Windchill Dew Point Humidity Pressure Visibility Wind Dir Wind Speed Gust Speed Precip Events Conditions
12:15 AM 32.0 °F 17.0 °F 26.6 °F 80% 29.63 in 10.0 mi NW 33.4 mph 47.2 mph N/A   Overcast
12:35 AM 32.0 °F 18.1 °F 26.6 °F 80% 29.63 in 10.0 mi NW 27.6 mph 44.9 mph N/A   Mostly Cloudy
12:55 AM 32.0 °F 16.5 °F 24.8 °F 75% 29.63 in 10.0 mi NW 35.7 mph 50.6 mph N/A   Overcast
1:15 AM 32.0 °F 17.0 °F 24.8 °F 75% 29.65 in 10.0 mi NW 33.4 mph 49.5 mph N/A   Overcast
1:35 AM 32.0 °F 16.5 °F 24.8 °F 75% 29.66 in 10.0 mi NW 35.7 mph 48.3 mph N/A   Overcast
1:55 AM 32.0 °F 16.3 °F 24.8 °F 75% 29.66 in 10.0 mi NW 36.8 mph 48.3 mph N/A   Overcast
2:15 AM 32.0 °F 17.0 °F 24.8 °F 75% 29.67 in 10.0 mi NW 33.4 mph 47.2 mph N/A   Overcast
2:35 AM 30.2 °F 14.9 °F 24.8 °F 80% 29.68 in 10.0 mi NW 31.1 mph 43.7 mph N/A   Mostly Cloudy
2:55 AM 30.2 °F 14.7 °F 23.0 °F 75% 29.70 in 10.0 mi NW 32.2 mph 49.5 mph N/A   Partly Cloudy
3:15 AM 30.2 °F 15.2 °F 23.0 °F 75% 29.70 in 10.0 mi NW 29.9 mph 46.0 mph N/A   Mostly Cloudy
3:35 AM 28.4 °F 12.5 °F 23.0 °F 80% 29.72 in 10.0 mi NW 31.1 mph 50.6 mph N/A   Mostly Cloudy
3:55 AM 30.2 °F 14.5 °F 23.0 °F 75% 29.72 in 10.0 mi NW 33.4 mph 48.3 mph N/A   Overcast
4:15 AM 30.2 °F 13.9 °F 23.0 °F 75% 29.73 in 10.0 mi NW 36.8 mph 47.2 mph N/A Rain Light Freezing Rain
4:35 AM 30.2 °F 14.5 °F 23.0 °F 75% 29.73 in 10.0 mi NW 33.4 mph 51.8 mph N/A Rain Light Freezing Rain
4:55 AM 30.2 °F 13.1 °F 23.0 °F 75% 29.72 in 10.0 mi NW 41.4 mph 58.7 mph N/A   Overcast
5:15 AM 30.2 °F 13.1 °F 23.0 °F 75% 29.74 in 10.0 mi NW 41.4 mph 57.5 mph N/A   Overcast
5:35 AM 28.4 °F 11.6 °F 24.8 °F 86% 29.75 in 9.0 mi NNW 35.7 mph 59.8 mph 0.01 in Rain Light Freezing Rain
5:55 AM 28.4 °F 11.6 °F 24.8 °F 86% 29.78 in 2.0 mi North 35.7 mph 50.6 mph 0.03 in Snow Light Snow
6:15 AM 23.0 °F 4.1 °F 19.4 °F 86% 29.81 in 3.0 mi NNW 35.7 mph 49.5 mph 0.02 in Rain Light Freezing Rain
6:35 AM 23.0 °F 4.1 °F 17.6 °F 80% 29.83 in 8.0 mi NNW 35.7 mph 47.2 mph 0.04 in Snow Light Snow
6:55 AM 19.4 °F -1.3 °F 14.0 °F 80% 29.85 in 10.0 mi NNW 38.0 mph 50.6 mph 0.04 in Snow Light Snow
7:15 AM 15.8 °F -5.0 °F 10.4 °F 79% 29.88 in 10.0 mi NNW 32.2 mph 44.9 mph N/A   Clear
7:35 AM 15.8 °F -4.7 °F 10.4 °F 79% 29.91 in 10.0 mi NNW 31.1 mph 47.2 mph N/A   Clear
7:55 AM 14.0 °F -8.0 °F 8.6 °F 79% 29.92 in 10.0 mi NNW 34.5 mph 44.9 mph N/A Rain Light Freezing Rain
8:15 AM 12.2 °F -8.9 °F 6.8 °F 79% 29.95 in 10.0 mi North 28.8 mph 36.8 mph N/A   Clear
8:35 AM 10.4 °F -12.0 °F 5.0 °F 79% 29.97 in 10.0 mi NNW 31.1 mph 44.9 mph N/A   Clear
8:55 AM 10.4 °F -9.1 °F 5.0 °F 79% 30.00 in 10.0 mi NNW 21.9 mph 34.5 mph N/A   Clear
9:15 AM 10.4 °F -9.9 °F 5.0 °F 79% 30.02 in 10.0 mi NNW 24.2 mph 31.1 mph N/A   Clear
9:35 AM 10.4 °F -11.4 °F 5.0 °F 79% 30.04 in 10.0 mi NNW 28.8 mph 34.5 mph N/A   Clear
9:55 AM 10.4 °F -11.0 °F 3.2 °F 73% 30.06 in 10.0 mi NNW 27.6 mph 35.7 mph N/A   Clear
10:15 AM 10.4 °F -9.1 °F 3.2 °F 73% 30.08 in 10.0 mi NNW 21.9 mph 34.5 mph N/A   Clear
10:35 AM 10.4 °F -8.6 °F 3.2 °F 73% 30.09 in 10.0 mi NNW 20.7 mph 31.1 mph N/A   Clear
10:55 AM 10.4 °F -9.1 °F 3.2 °F 73% 30.11 in 10.0 mi NNW 21.9 mph 29.9 mph N/A   Clear
11:15 AM 10.4 °F -8.6 °F 5.0 °F 79% 30.13 in 10.0 mi NNW 20.7 mph 31.1 mph N/A   Clear
11:35 AM 10.4 °F -7.2 °F 5.0 °F 79% 30.14 in 10.0 mi NNW 17.3 mph 27.6 mph N/A   Clear
11:55 AM 12.2 °F -6.3 °F 5.0 °F 73% 30.14 in 10.0 mi NNW 20.7 mph 25.3 mph N/A   Clear
12:15 PM 12.2 °F -5.8 °F 5.0 °F 73% 30.14 in 10.0 mi NNW 19.6 mph 28.8 mph N/A   Clear
12:35 PM 14.0 °F -3.4 °F 5.0 °F 67% 30.15 in 10.0 mi NNW 19.6 mph 27.6 mph N/A   Clear
12:55 PM 14.0 °F -3.9 °F 5.0 °F 67% 30.15 in 10.0 mi NW 20.7 mph 29.9 mph N/A   Clear
1:15 PM 14.0 °F -3.9 °F 6.8 °F 73% 30.15 in 10.0 mi NNW 20.7 mph 25.3 mph N/A   Clear
1:35 PM 14.0 °F -2.5 °F 5.0 °F 67% 30.15 in 10.0 mi NNW 17.3 mph 26.5 mph N/A   Clear
1:55 PM 14.0 °F -2.5 °F 6.8 °F 73% 30.16 in 10.0 mi NNW 17.3 mph 24.2 mph N/A   Clear
2:55 PM 15.8 °F -0.2 °F 6.8 °F 68% 30.15 in 10.0 mi NNW 17.3 mph 23.0 mph N/A   Clear
3:15 PM 15.8 °F 0.3 °F 6.8 °F 68% 30.16 in 10.0 mi NNW 16.1 mph 20.7 mph N/A   Clear
3:35 PM 15.8 °F 2.1 °F 6.8 °F 68% 30.16 in 10.0 mi NW 12.7 mph 23.0 mph N/A   Clear
3:55 PM 15.8 °F 2.1 °F 6.8 °F 68% 30.17 in 10.0 mi NW 12.7 mph 18.4 mph N/A   Clear
4:15 PM 14.0 °F 0.5 °F 6.8 °F 73% 30.18 in 10.0 mi WNW 11.5 mph - N/A   Clear
4:35 PM 15.8 °F 1.4 °F 6.8 °F 68% 30.18 in 10.0 mi WNW 13.8 mph 19.6 mph N/A   Clear
4:55 PM 15.8 °F 2.7 °F 8.6 °F 73% 30.19 in 10.0 mi NW 11.5 mph - N/A   Clear
5:15 PM 15.8 °F 3.4 °F 8.6 °F 73% 30.19 in 10.0 mi NW 10.4 mph - N/A   Clear
5:35 PM 14.0 °F 2.9 °F 6.8 °F 73% 30.19 in 10.0 mi NW 8.1 mph - N/A   Clear
5:55 PM 14.0 °F 2.9 °F 8.6 °F 79% 30.20 in 10.0 mi WNW 8.1 mph - N/A   Mostly Cloudy
6:15 PM 14.0 °F -0.2 °F 10.4 °F 86% 30.20 in 10.0 mi WNW 12.7 mph 17.3 mph N/A   Overcast
6:35 PM 14.0 °F -0.2 °F 10.4 °F 86% 30.18 in 10.0 mi NW 12.7 mph 18.4 mph N/A   Mostly Cloudy
6:55 PM 14.0 °F 0.5 °F 10.4 °F 86% 30.18 in 10.0 mi WNW 11.5 mph - N/A   Partly Cloudy
7:15 PM 12.2 °F -1.8 °F 10.4 °F 92% 30.17 in 10.0 mi WNW 11.5 mph - N/A   Clear
7:35 PM 12.2 °F -1.0 °F 8.6 °F 85% 30.16 in 10.0 mi WNW 10.4 mph - N/A   Clear
7:55 PM 12.2 °F -2.5 °F 10.4 °F 92% 30.16 in 10.0 mi WNW 12.7 mph - N/A   Clear
8:15 PM 14.0 °F -0.2 °F 10.4 °F 86% 30.15 in 10.0 mi WNW 12.7 mph - N/A   Clear
8:35 PM 14.0 °F -0.2 °F 12.2 °F 93% 30.14 in 10.0 mi WNW 12.7 mph - N/A   Clear
8:55 PM 14.0 °F 0.5 °F 12.2 °F 93% 30.13 in 10.0 mi WNW 11.5 mph - N/A   Clear
9:15 PM 14.0 °F 1.2 °F 14.0 °F 100% 30.13 in 10.0 mi WNW 10.4 mph - N/A   Clear
9:35 PM 14.0 °F 0.5 °F 14.0 °F 100% 30.12 in 10.0 mi WNW 11.5 mph - N/A   Clear
9:55 PM 14.0 °F 1.2 °F 14.0 °F 100% 30.11 in 10.0 mi WNW 10.4 mph - N/A   Clear
10:15 PM 15.8 °F 4.2 °F 14.0 °F 93% 30.11 in 10.0 mi WNW 9.2 mph - N/A   Clear
10:35 PM 15.8 °F 2.7 °F 15.8 °F 100% 30.11 in 10.0 mi WNW 11.5 mph - N/A   Clear
10:55 PM 15.8 °F 4.2 °F 15.8 °F 100% 30.11 in 10.0 mi WNW 9.2 mph - N/A   Clear
11:15 PM 14.0 °F 8.2 °F 14.0 °F 100% 30.10 in 10.0 mi SW 3.5 mph - N/A   Clear
11:35 PM 12.2 °F 2.9 °F 10.4 °F 92% 30.10 in 10.0 mi WSW 5.8 mph - N/A   Clear
11:55 PM 10.4 °F 4.0 °F 10.4 °F 100% 30.09 in 10.0 mi West 3.5 mph - N/A   Clear